Orbital Elements at Epoch 2459200.5 (2020-Dec-17.0) TDB
Reference: JPL 16 (heliocentric ecliptic J2000)
Element | Value | Uncertainty (1-sigma) | Units |
e | .1527471844885181 | 4.2882e-08 | |
a | 2.418349130417984 | 9.6207e-09 | au |
q | 2.04895310963638 | 1.0304e-07 | au |
i | 2.466948612243506 | 6.5743e-06 | deg |
node | 340.5752966290074 | 8.787e-05 | deg |
peri | 251.087398282211 | 9.0346e-05 | deg |
M | 135.9924578456673 | 1.9654e-05 | deg |
tp | 2458681.593336659837 (2019-Jul-17.09333666) | 7.4782e-05 | TDB |
period | 1373.652640460827 3.76 | 8.197e-06 2.244e-08 | d yr |
n | .2620749885351137 | 1.5639e-09 | deg/d |
Q | 2.787745151199586 | 1.109e-08 | au |
|
| | Orbit Determination Parameters
Additional Information
|